Regional Weather Roundup
Issued by NWS

Home | Current Version | Previous Version | Text Only | Print | Product List | Glossary Off
Versions: 1 2 3 4 5 6 7 8 9 10 11 12 13 14 15 16 17 18 19 20 21 22 23 24 25 26 27 28 29 30 31 32 33 34 35 36 37 38 39 40 41 42 43 44 45 46 47 48 49 50

000
ASUS43 KMKX 271610
RWRWI

WISCONSIN REGIONAL WEATHER ROUNDUP
NATIONAL WEATHER SERVICE MILWAUKEE/SULLIVAN WI
1100 AM CDT FRI MAR 27 2015

NOTE: "FAIR" INDICATES FEW OR NO CLOUDS BELOW 12,000 FEET WITH NO
SIGNIFICANT WEATHER AND/OR OBSTRUCTIONS TO VISIBILITY.

WIZ001-002-006>008-014>016-023>028-271700-
NORTHWEST WISCONSIN

CITY           SKY/WX    TMP DP  RH WIND       PRES   REMARKS
SUPERIOR ARPT  SUNNY     25   7  46 E3        30.29F
ASHLAND        SUNNY     24   8  50 N7        30.28F WCI  16
HAYWARD        SUNNY     23   7  50 NE7       30.24S WCI  15
SIREN          SUNNY     25   6  45 W3        30.26F
CUMBERLAND     SUNNY     23   5  46 CALM      30.25S
RICE LAKE      SUNNY     24   7  47 CALM      30.28R
CHETEK         SUNNY     24   7  47 N3        30.26R
LADYSMITH      SUNNY     25   9  52 N5        30.25S WCI  19
EAU CLAIRE     SUNNY     26   6  42 CALM      30.26S
MENOMONIE      SUNNY     26   5  42 CALM      30.27S
NEW RICHMOND   SUNNY     26   6  44 E5        30.27F WCI  20
OSCEOLA        SUNNY     25   7  46 CALM      30.30F
$$

WIZ003>005-009-010-017-018-271700-
NORTH CENTRAL WISCONSIN

CITY           SKY/WX    TMP DP  RH WIND       PRES   REMARKS
MANITOWISH WTR SUNNY     19   4  51 N7        30.19S WCI  10
ARBOR VITAE    SUNNY     19   5  54 N7        30.19S WCI  10
WOODRUFF       SUNNY     19   5  54 N7        30.19S WCI  10
RHINELANDER    SUNNY     17   3  54 NE7       30.19S WCI   8
EAGLE RIVER    SUNNY     18   0  45 N9        30.18S WCI   7
LAND O LAKES   SUNNY     17   0  47 NE10      30.19S WCI   5
PHILLIPS       SUNNY     21   7  55 NE8       30.20S WCI  12
TOMAHAWK       SUNNY     20   5  51 N6        30.21S WCI  12
MEDFORD        SUNNY     21   8  58 NE5       30.20S WCI  14
MERRILL        SUNNY     22   5  49 N9        30.20F WCI  11
$$

WIZ029-030-035-036-043>047-271700-
CENTRAL WISCONSIN

CITY           SKY/WX    TMP DP  RH WIND       PRES   REMARKS
WAUSAU         MOSUNNY   21   7  54 N8        30.20F WCI  11
MOSINEE        MOSUNNY   19   9  63 NW9       30.22F WCI   9
MARSHFIELD     PTSUNNY   24   9  52 N9        30.21F WCI  14
STEVENS POINT  SUNNY     20   5  53 NE9       30.22F WCI   9
WAUPACA        SUNNY     27   4  37 N10       30.23F WCI  17
WAUTOMA        SUNNY     25   4  40 N15       30.23F WCI  13
WISC RAPIDS    MOSUNNY   25   7  46 N9        30.24F WCI  15
CAMP DOUGLAS   SUNNY     27   7  43 N8        30.24S WCI  18
$$

WIZ011>013-019>022-031-037>040-048>050-271700-
NORTHEAST WISCONSIN

CITY           SKY/WX    TMP DP  RH WIND       PRES   REMARKS
ANTIGO         SUNNY     18   4  55 N9        30.18F WCI   7
SHAWANO        SUNNY     25   6  45 NE9       30.23S WCI  15
OCONTO         SUNNY     22   4  47 N9        30.23S WCI  11
STURGEON BAY   MOSUNNY   18   7  62 N16G22    30.24S WCI   3
GREEN BAY      PTSUNNY   23   8  52 N14       30.23S WCI  11
MANITOWOC      CLOUDY    23   8  52 N15G23    30.21R WCI  10
APPLETON       PTSUNNY   23   3  42 N18       30.22S WCI   9
CLINTONVILLE   SUNNY     23   3  42 N9        30.23S WCI  13
OSHKOSH        MOSUNNY   24   5  44 N15G24    30.21F WCI  11
$$

WIZ032>034-041-042-053>061-271700-
SOUTHWEST WISCONSIN

CITY           SKY/WX    TMP DP  RH WIND       PRES   REMARKS
LA CROSSE      SUNNY     29  10  45 N8        30.27F WCI  21
SPARTA         SUNNY     27   7  42 NW7       30.26S WCI  19
VIROQUA        SUNNY     25  11  57 NE6       30.22S WCI  18
BOSCOBEL       SUNNY     28   8  43 N9G18     30.26S WCI  19
PRAIRIE DU CHI SUNNY     27   6  41 N7        30.27R WCI  19
PLATTEVILLE    SUNNY     25  10  54 NW10      30.22S WCI  15
$$

WIZ056-057-062-063-064-067-068-271700-
SOUTH CENTRAL WISCONSIN

CITY           SKY/WX    TMP DP  RH WIND       PRES   REMARKS
REEDSBURG      SUNNY     24   5  42 N10       30.23S WCI  14
BARABOO/DELLS  SUNNY     25   2  37 NE13G24   30.21F WCI  14
LONE ROCK      SUNNY     28   8  43 N13G21    30.24S WCI  17
MINERAL POINT  SUNNY     27   9  46 N10       30.21S WCI  17
MADISON        MOSUNNY   26   5  40 N10       30.21S WCI  16
MIDDLETON      SUNNY     28   8  43 N15G23    30.21F WCI  16
WATERTOWN      MOSUNNY   25   5  41 N12G20    30.19F WCI  14
MONROE         MOSUNNY   27  12  54 N17       30.19F WCI  14
JANESVILLE     MOSUNNY   27   3  36 N13G24    30.20S WCI  16
$$

WIZ051-052-058>065-066-070>072-271700-
SOUTHEAST WISCONSIN

CITY           SKY/WX    TMP DP  RH WIND       PRES   REMARKS
MILWAUKEE      PTSUNNY   24   7  48 N13       30.19R WCI  12
WAUKESHA       MOSUNNY   21   3  45 N15G21    30.19S WCI   8
MILWAUKEE/TIMM PTSUNNY   25   1  36 N14G23    30.20S WCI  13
RACINE         CLOUDY    24  10  55 N18G24    30.20R WCI  10
BURLINGTON     MOSUNNY   24   4  42 N16G24    30.18S WCI  10
KENOSHA        MOSUNNY   26   7  44 N12G21    30.18R WCI  16
FOND DU LAC    MOSUNNY   25   7  46 NE14G25   30.23R WCI  13
SHEBOYGAN      PTSUNNY   22   6  50 N14       30.19S WCI   9
WEST BEND      MOSUNNY   23   3  42 N12       30.19S WCI  12
JUNEAU         SUNNY     24   4  43 NW15G24   30.21S WCI  11
$$

LSZ147-162-271700-
LAKE SUPERIOR

STATION/POSITION TIME  TEMP    WIND        PRES    WAVE
                       AIR SEA DIR/SP/G            HT/PER
                 (UTC) (F)     (DEG/KT/KT) (MB)    (FT/S)
DEVILS ISLAND    1600   19      50/  4/  6 1027.4F
PORT WING        1500   23      40/ 11/ 12 1026.1
$$

LMZ867-665-643>646-271700-
LAKE MICHIGAN

STATION/POSITION TIME  TEMP    WIND        PRES    WAVE
                       AIR SEA DIR/SP/G            HT/PER
                 (UTC) (F)     (DEG/KT/KT) (MB)    (FT/S)
NORTHPORT PIER   1513   15     340/ 19     1024.0R
SISTER BAY       1417   18     360/ 18/ 23   N/A
KEWAUNEE LAKESHO 1500   19      10/  9/ 17 1022.2R
SHEBOYGAN LAKESH 1600   21     360/ 18/ 22 1024.0R
PORT WASHINGTON  1540   23     330/ 10/ 18 1023.4R
MILWAUKEE LAKESH 1500   22     350/ 12/ 15   N/A
KENOSHA   LAKESH 1600   23     350/ 16/ 25 1022.0R
$$

TC  - TEMPERATURE IN CELSIUS
VSB - VISIBILITY IN STATUTE MILES
WCI - WIND CHILL INDEX
HX  - HEAT INDEX




USA.gov is the U.S. government's official web portal to all federal, state and local government web resources and services.